Weather in Saragash

Russia / Republic of Khakassia     54°46′28″N   90°44′42″E
temp.,
°C
wind,
m/s
gust,
m/s
humid.,
%
clouds,
%
prec.,
mm/h
press.,
hPa
HPBL,
m
5 march, fri
fri501:00−11s3391100 0.0 102246
04:00−13s239197 0.0 102122
07:00−14s229385 0.0 102020
10:00−11sse2493100 0.0 1018156
13:00−8sse4791100 0.0 1016340
16:00−7se4791100 0.0 1015288
19:00−8s479199 0.0 1018129
22:00−7sw49790 0.0 1020122
6 march, sat
sat601:00−6sw5157550 0.0 1022511
04:00−7s41379100 0.0 1020529
07:00−6s51179100 0.0 1021240
10:00−5s61479100 0.0 1020738
13:00−1ssw71473100 0.0 10191450
16:00−1ssw61374100 0.0 10161131
19:00−4s4875100 0.0 1015169
22:00−5s51070100 0.0 1014178
7 march, sun
sun701:00−6s41071100 0.0 1014147
04:00−8s3476100 0.0 101348
07:00−8s3580100 0.0 101478
10:00−5s3484100 0.0 1014111
13:00−1wsw4117599 0.0 10161730
16:00−1w31181100 0.1 10171877
19:00−6w2279100 0.1 102021
22:00−9nw0190100 0.1 102321
8 march, mon
mon801:00−13sw118471 0.1 102521
04:00−14e118548 0.0 102621
07:00−14sse229061 0.0 102521
10:00−10sse2490100 0.0 1021160
13:00−6sse4790100 0.0 1017339
16:00−4sse4792100 0.0 1013291
19:00−7sse3595100 0.0 101280
22:00−5s4990100 0.0 1012153
9 march, tue
tue901:00−4s5982100 0.0 1012163
04:00−6ssw348170 0.0 101555
07:00−6w268680 0.1 1020183
10:00−7wsw31178100 0.0 1023734
13:00−4wsw5116899 0.0 10241385
16:00−4w377725 0.0 10251111
19:00−11s117413 0.0 102621
22:00−12sse12713 0.0 102521